TimeAEST,TemperatureF,Dew PointF,Humidity,Sea Level PressureIn,VisibilityMPH,Wind Direction,Wind SpeedMPH,Gust SpeedMPH,PrecipitationIn,Events,Conditions,WindDirDegrees,DateUTC
12:00 AM,71,65,74,30.05,,South,9.2,,,,,170,2013-07-22 14:00:00
12:00 AM,71.6,64.4,78,30.04,6.2,South,9.2,-,N/A,,Partly Cloudy,170,2013-07-22 14:00:00
12:30 AM,69.8,64.4,83,30.04,6.2,South,11.5,-,N/A,,Partly Cloudy,170,2013-07-22 14:30:00
1:00 AM,70,64,77,30.05,,South,10.4,,,,,180,2013-07-22 15:00:00
1:00 AM,69.8,64.4,83,30.04,6.2,South,10.4,-,N/A,,Partly Cloudy,180,2013-07-22 15:00:00
1:30 AM,69.8,64.4,83,30.04,6.2,South,9.2,-,N/A,,Partly Cloudy,180,2013-07-22 15:30:00
2:00 AM,69.8,64.4,83,30.01,6.2,South,9.2,-,N/A,,Partly Cloudy,170,2013-07-22 16:00:00
2:30 AM,68.0,64.4,88,30.01,6.2,SSE,9.2,-,N/A,,Partly Cloudy,160,2013-07-22 16:30:00
3:00 AM,70,64,74,30.01,,South,11.5,,,,,170,2013-07-22 17:00:00
3:00 AM,69.8,64.4,83,30.01,6.2,South,11.5,-,N/A,,Partly Cloudy,170,2013-07-22 17:00:00
3:30 AM,69.8,64.4,83,30.01,6.2,SSE,11.5,-,N/A,,Partly Cloudy,160,2013-07-22 17:30:00
4:00 AM,67,63,84,30.02,,SE,10.4,,,,,130,2013-07-22 18:00:00
4:00 AM,66.2,62.6,88,30.01,6.2,SE,10.4,-,N/A,,Partly Cloudy,130,2013-07-22 18:00:00
4:30 AM,66.2,64.4,94,30.01,6.2,SE,9.2,-,N/A,,Partly Cloudy,130,2013-07-22 18:30:00
5:00 AM,68.0,62.6,83,30.01,6.2,SSE,9.2,-,N/A,,Partly Cloudy,150,2013-07-22 19:00:00
5:30 AM,68.0,62.6,83,30.01,6.2,SE,10.4,-,N/A,,Partly Cloudy,140,2013-07-22 19:30:00
6:00 AM,69,62,72,30.04,19,SSE,8.1,,,,Partly Cloudy,160,2013-07-22 20:00:00
6:00 AM,69.8,62.6,78,30.04,6.2,SSE,8.1,-,N/A,,Partly Cloudy,160,2013-07-22 20:00:00
6:30 AM,69.8,62.6,78,30.04,6.2,SSE,9.2,-,N/A,,Scattered Clouds,160,2013-07-22 20:30:00
7:00 AM,71,62,66,30.06,,South,12.7,,,,,180,2013-07-22 21:00:00
7:00 AM,71.6,62.6,73,30.04,6.2,South,12.7,-,N/A,,Scattered Clouds,180,2013-07-22 21:00:00
7:30 AM,71.6,62.6,73,30.04,6.2,South,12.7,-,N/A,,Scattered Clouds,180,2013-07-22 21:30:00
8:00 AM,71.6,62.6,73,30.06,6.2,South,12.7,-,N/A,,Scattered Clouds,170,2013-07-22 22:00:00
8:30 AM,71.6,62.6,73,30.06,6.2,South,13.8,-,N/A,,Scattered Clouds,170,2013-07-22 22:30:00
9:00 AM,73,62,59,30.09,19,South,11.5,,,,Partly Cloudy,180,2013-07-22 23:00:00
9:00 AM,73.4,62.6,69,30.06,6.2,South,11.5,-,N/A,,Scattered Clouds,180,2013-07-22 23:00:00
9:30 AM,75.2,62.6,65,30.09,6.2,SSE,13.8,-,N/A,,Partly Cloudy,160,2013-07-22 23:30:00
10:00 AM,76,63,56,30.10,,South,18.4,,,,,170,2013-07-23 00:00:00
10:00 AM,77.0,62.6,61,30.09,6.2,South,18.4,-,N/A,,Partly Cloudy,170,2013-07-23 00:00:00
10:30 AM,78.8,62.6,57,30.06,6.2,SSE,19.6,-,N/A,,Partly Cloudy,160,2013-07-23 00:30:00
11:00 AM,77.0,62.6,61,30.06,6.2,SE,19.6,-,N/A,,Scattered Clouds,130,2013-07-23 01:00:00
12:00 PM,79,62,46,30.06,19,SSE,16.1,,,,Partly Cloudy,160,2013-07-23 02:00:00
12:00 PM,78.8,62.6,57,30.06,6.2,SSE,16.1,-,N/A,,Partly Cloudy,160,2013-07-23 02:00:00
1:00 PM,79,62,46,30.05,,SE,18.4,,,,,140,2013-07-23 03:00:00
1:00 PM,78.8,62.6,57,30.04,6.2,SE,18.4,-,N/A,,Partly Cloudy,140,2013-07-23 03:00:00
1:30 PM,78.8,60.8,54,30.04,6.2,SE,18.4,-,N/A,,Partly Cloudy,130,2013-07-23 03:30:00
2:00 PM,80.6,60.8,51,30.01,6.2,SE,17.3,-,N/A,,Partly Cloudy,130,2013-07-23 04:00:00
2:30 PM,78.8,59.0,51,30.01,6.2,SE,19.6,-,N/A,,Partly Cloudy,130,2013-07-23 04:30:00
3:00 PM,79,60,42,30.01,19,SE,17.3,,,,Partly Cloudy,130,2013-07-23 05:00:00
3:00 PM,78.8,60.8,54,30.01,6.2,SE,17.3,-,N/A,,Partly Cloudy,130,2013-07-23 05:00:00
3:30 PM,78.8,60.8,54,30.01,6.2,SE,16.1,-,N/A,,Partly Cloudy,130,2013-07-23 05:30:00
5:00 PM,77.0,59.0,54,30.01,6.2,SE,12.7,-,N/A,,Partly Cloudy,140,2013-07-23 07:00:00
5:30 PM,73.4,60.8,65,30.04,6.2,SE,12.7,-,N/A,,Partly Cloudy,140,2013-07-23 07:30:00
6:00 PM,72,61,60,30.05,,SE,10.4,,,,,140,2013-07-23 08:00:00
6:00 PM,71.6,60.8,69,30.04,6.2,SE,10.4,-,N/A,,Scattered Clouds,140,2013-07-23 08:00:00
6:30 PM,71.6,60.8,69,30.06,6.2,SE,11.5,-,N/A,,Mostly Cloudy,140,2013-07-23 08:30:00
7:00 PM,72,61,61,30.08,,SSE,8.1,,,,,150,2013-07-23 09:00:00
7:00 PM,71.6,60.8,69,30.06,6.2,SSE,8.1,-,N/A,,Mostly Cloudy,150,2013-07-23 09:00:00
7:30 PM,71.6,60.8,69,30.06,6.2,South,6.9,-,N/A,,Mostly Cloudy,180,2013-07-23 09:30:00
8:00 PM,71.6,60.8,69,30.06,6.2,South,6.9,-,N/A,,Mostly Cloudy,180,2013-07-23 10:00:00
8:30 PM,71.6,60.8,69,30.06,6.2,South,5.8,-,N/A,,Scattered Clouds,180,2013-07-23 10:30:00
9:00 PM,71,60,59,30.08,,South,5.8,,,,,180,2013-07-23 11:00:00
9:00 PM,71.6,59.0,64,30.06,6.2,South,5.8,-,N/A,,Scattered Clouds,180,2013-07-23 11:00:00
9:30 PM,71.6,59.0,64,30.06,6.2,South,9.2,-,N/A,,Mostly Cloudy,170,2013-07-23 11:30:00
10:00 PM,71,60,59,30.09,,South,9.2,,,,,170,2013-07-23 12:00:00
10:00 PM,71.6,59.0,64,30.06,6.2,South,9.2,-,N/A,,Scattered Clouds,170,2013-07-23 12:00:00
10:30 PM,69.8,59.0,68,30.06,6.2,South,11.5,-,N/A,,Scattered Clouds,170,2013-07-23 12:30:00
11:00 PM,71.6,59.0,64,30.06,6.2,South,12.7,-,N/A,,Mostly Cloudy,170,2013-07-23 13:00:00
11:30 PM,71.6,59.0,64,30.06,6.2,SSE,13.8,-,N/A,,Mostly Cloudy,160,2013-07-23 13:30:00